• In Lithuania
  • List of Countries
  • For 7 days
  • Water Temperature
  • Satellite Maps
  • Weather Map
  • Weather Widgets
  • user-avatar
    Login

    Hourly Weather Sydney

    Today, 22 October, Sunday

    Time Temperature Precipitation Wind Pressure Humidity
    00:00 +14°C° 0.1 mm 1 mps 761 mmHg 87%
    01:00 +14°C° 0.1 mm 1 mps 761 mmHg 88%
    02:00 +14°C° 0.1 mm 1 mps 761 mmHg 90%
    03:00 +13°C° 0.1 mm 1 mps 760 mmHg 92%
    04:00 +13°C° 0 mm 2 mps 760 mmHg 93%
    05:00 +14°C° 0.1 mm 2 mps 760 mmHg 88%
    06:00 +15°C° 0.1 mm 2 mps 760 mmHg 83%
    07:00 +16°C° 0.1 mm 2 mps 760 mmHg 78%
    08:00 +19°C° 0.1 mm 2 mps 760 mmHg 67%
    09:00 +21°C° 0.1 mm 2 mps 760 mmHg 56%
    10:00 +25°C° 0 mm 1 mps 760 mmHg 42%
    11:00 +24°C° 0.2 mm 2 mps 759 mmHg 44%
    12:00 +24°C° 0.2 mm 3 mps 759 mmHg 47%
    13:00 +22°C° 0.2 mm 4 mps 758 mmHg 49%
    14:00 +21°C° 0.5 mm 4 mps 758 mmHg 58%
    15:00 +20°C° 0.5 mm 4 mps 758 mmHg 67%
    16:00 +19°C° 0.5 mm 5 mps 758 mmHg 76%
    17:00 +18°C° 0.4 mm 4 mps 758 mmHg 78%
    18:00 +17°C° 0.4 mm 4 mps 759 mmHg 81%
    19:00 +15°C° 0.4 mm 4 mps 759 mmHg 83%
    20:00 +16°C° 0.4 mm 3 mps 760 mmHg 84%
    21:00 +14°C° 0.4 mm 3 mps 760 mmHg 85%
    22:00 +14°C° 0.4 mm 3 mps 761 mmHg 86%
    23:00 +13°C° 0.2 mm 3 mps 761 mmHg 87%

    Tomorrow, 23 October, Monday

    Time Temperature Precipitation Wind Pressure Humidity
    00:00 +13°C° 0.2 mm 3 mps 761 mmHg 88%
    01:00 +12°C° 0.2 mm 3 mps 761 mmHg 89%
    02:00 +12°C° 0.2 mm 3 mps 761 mmHg 90%
    03:00 +12°C° 0.2 mm 3 mps 761 mmHg 90%
    04:00 +11°C° 0.2 mm 4 mps 761 mmHg 91%
    05:00 +12°C° 0 mm 4 mps 761 mmHg 87%
    06:00 +13°C° 0 mm 4 mps 762 mmHg 83%
    07:00 +14°C° 0 mm 4 mps 762 mmHg 79%
    08:00 +18°C° 0 mm 4 mps 762 mmHg 68%
    09:00 +20°C° 0 mm 4 mps 762 mmHg 56%
    10:00 +22°C° 0 mm 4 mps 762 mmHg 45%
    11:00 +23°C° 0 mm 4 mps 762 mmHg 44%
    12:00 +25°C° 0 mm 4 mps 762 mmHg 42%
    13:00 +25°C° 0 mm 4 mps 761 mmHg 40%
    14:00 +25°C° 0 mm 4 mps 761 mmHg 44%
    15:00 +23°C° 0 mm 4 mps 761 mmHg 47%
    16:00 +23°C° 0 mm 4 mps 761 mmHg 51%
    17:00 +21°C° 0 mm 3 mps 762 mmHg 60%
    18:00 +19°C° 0 mm 3 mps 762 mmHg 69%
    19:00 +17°C° 0 mm 3 mps 762 mmHg 78%
    20:00 +16°C° 0 mm 3 mps 763 mmHg 82%
    21:00 +16°C° 0 mm 3 mps 763 mmHg 85%
    22:00 +14°C° 0 mm 3 mps 764 mmHg 88%
    23:00 +14°C° 0 mm 3 mps 764 mmHg 89%

    Day after tomorrow, 24 October, Tuesday

    Time Temperature Precipitation Wind Pressure Humidity
    00:00 +13°C° 0 mm 3 mps 763 mmHg 90%
    01:00 +13°C° 0 mm 3 mps 763 mmHg 91%
    02:00 +13°C° 0 mm 3 mps 763 mmHg 92%
    03:00 +13°C° 0 mm 3 mps 763 mmHg 92%
    04:00 +12°C° 0 mm 3 mps 763 mmHg 92%
    05:00 +14°C° 0 mm 3 mps 763 mmHg 84%
    06:00 +16°C° 0 mm 3 mps 763 mmHg 77%
    07:00 +18°C° 0 mm 3 mps 764 mmHg 69%
    08:00 +21°C° 0 mm 3 mps 763 mmHg 57%
    09:00 +26°C° 0 mm 3 mps 763 mmHg 45%
    10:00 +29°C° 0 mm 2 mps 763 mmHg 33%
    11:00 +30°C° 0 mm 3 mps 762 mmHg 30%
    12:00 +32°C° 0 mm 4 mps 762 mmHg 27%
    13:00 +34°C° 0 mm 4 mps 761 mmHg 24%
    14:00 +32°C° 0 mm 5 mps 761 mmHg 27%
    15:00 +30°C° 0 mm 5 mps 760 mmHg 30%
    16:00 +29°C° 0 mm 6 mps 760 mmHg 34%
    17:00 +27°C° 0 mm 6 mps 760 mmHg 41%
    18:00 +25°C° 0 mm 5 mps 760 mmHg 48%
    19:00 +22°C° 0 mm 5 mps 760 mmHg 56%
    20:00 +21°C° 0 mm 5 mps 761 mmHg 60%
    21:00 +20°C° 0 mm 4 mps 761 mmHg 64%
    22:00 +19°C° 0 mm 4 mps 761 mmHg 68%
    23:00 +19°C° 0 mm 3 mps 761 mmHg 69%

    25 October, Wednesday

    Time Temperature Precipitation Wind Pressure Humidity
    00:00 +18°C° 0 mm 3 mps 760 mmHg 69%
    01:00 +18°C° 0 mm 2 mps 760 mmHg 69%
    02:00 +18°C° 0 mm 2 mps 760 mmHg 70%
    03:00 +18°C° 0 mm 2 mps 760 mmHg 70%
    04:00 +17°C° 0 mm 3 mps 759 mmHg 71%
    05:00 +18°C° 0 mm 2 mps 760 mmHg 69%
    06:00 +19°C° 0 mm 2 mps 760 mmHg 68%
    07:00 +20°C° 0 mm 2 mps 760 mmHg 66%
    08:00 +23°C° 0 mm 2 mps 760 mmHg 59%
    09:00 +25°C° 0 mm 1 mps 760 mmHg 52%
    10:00 +27°C° 0 mm 1 mps 760 mmHg 45%
    11:00 +29°C° 0 mm 2 mps 759 mmHg 39%
    12:00 +31°C° 0 mm 3 mps 758 mmHg 33%
    13:00 +33°C° 0 mm 3 mps 757 mmHg 27%
    14:00 +32°C° 0 mm 4 mps 757 mmHg 30%
    15:00 +30°C° 0 mm 4 mps 757 mmHg 33%
    16:00 +29°C° 0 mm 4 mps 756 mmHg 36%
    17:00 +28°C° 0 mm 4 mps 756 mmHg 42%
    18:00 +26°C° 0 mm 4 mps 756 mmHg 49%
    19:00 +24°C° 0 mm 3 mps 756 mmHg 56%
    20:00 +22°C° 0 mm 4 mps 756 mmHg 61%
    21:00 +20°C° 0 mm 4 mps 756 mmHg 66%
    22:00 +19°C° 0 mm 4 mps 755 mmHg 71%
    23:00 +19°C° 0 mm 4 mps 755 mmHg 72%

    26 October, Thursday

    Time Temperature Precipitation Wind Pressure Humidity
    00:00 +19°C° 0 mm 4 mps 754 mmHg 72%
    01:00 +19°C° 0 mm 4 mps 753 mmHg 72%
    02:00 +19°C° 0 mm 4 mps 752 mmHg 73%
    03:00 +19°C° 0 mm 4 mps 752 mmHg 74%
    04:00 +18°C° 0 mm 4 mps 752 mmHg 74%
    05:00 +20°C° 0 mm 4 mps 752 mmHg 67%
    06:00 +21°C° 0 mm 4 mps 751 mmHg 60%
    07:00 +23°C° 0 mm 4 mps 751 mmHg 52%
    08:00 +26°C° 0 mm 4 mps 751 mmHg 42%
    09:00 +29°C° 0 mm 4 mps 751 mmHg 32%
    10:00 +33°C° 0 mm 4 mps 751 mmHg 21%
    11:00 +34°C° 0 mm 4 mps 751 mmHg 21%
    12:00 +34°C° 0 mm 4 mps 750 mmHg 20%
    13:00 +35°C° 0 mm 4 mps 750 mmHg 19%
    14:00 +32°C° 0 mm 5 mps 750 mmHg 30%
    15:00 +29°C° 0 mm 6 mps 750 mmHg 41%
    16:00 +26°C° 0 mm 7 mps 751 mmHg 52%
    17:00 +23°C° 0.4 mm 7 mps 752 mmHg 60%
    18:00 +22°C° 0.4 mm 7 mps 752 mmHg 67%
    19:00 +20°C° 0.4 mm 6 mps 753 mmHg 75%
    20:00 +18°C° 0.2 mm 7 mps 754 mmHg 77%
    21:00 +18°C° 0.2 mm 7 mps 754 mmHg 80%
    22:00 +17°C° 0.2 mm 7 mps 755 mmHg 82%
    23:00 +16°C° 0 mm 7 mps 755 mmHg 81%

    27 October, Friday

    Time Temperature Precipitation Wind Pressure Humidity
    00:00 +16°C° 0 mm 7 mps 755 mmHg 80%
    01:00 +16°C° 0 mm 7 mps 755 mmHg 80%
    02:00 +15°C° 0 mm 7 mps 755 mmHg 80%
    03:00 +14°C° 0 mm 7 mps 756 mmHg 80%
    04:00 +14°C° 0 mm 7 mps 756 mmHg 80%
    05:00 +15°C° 0 mm 7 mps 757 mmHg 75%
    06:00 +16°C° 0 mm 7 mps 757 mmHg 70%
    07:00 +16°C° 0 mm 7 mps 758 mmHg 65%
    08:00 +18°C° 0 mm 7 mps 758 mmHg 59%
    09:00 +21°C° 0 mm 7 mps 758 mmHg 53%
    10:00 +23°C° 0 mm 6 mps 758 mmHg 47%
    11:00 +24°C° 0 mm 6 mps 757 mmHg 44%
    12:00 +26°C° 0 mm 6 mps 757 mmHg 40%
    13:00 +27°C° 0 mm 5 mps 757 mmHg 37%
    14:00 +27°C° 0 mm 5 mps 757 mmHg 40%
    15:00 +26°C° 0 mm 5 mps 756 mmHg 44%
    16:00 +25°C° 0 mm 5 mps 756 mmHg 48%
    17:00 +22°C° 0 mm 4 mps 757 mmHg 58%
    18:00 +20°C° 0 mm 4 mps 757 mmHg 68%
    19:00 +17°C° 0 mm 3 mps 757 mmHg 78%
    20:00 +17°C° 0 mm 2 mps 758 mmHg 81%
    21:00 +16°C° 0 mm 1 mps 758 mmHg 83%
    22:00 +15°C° 0 mm 0 mps 759 mmHg 86%
    23:00 +16°C° 0 mm 1 mps 758 mmHg 87%
    Show more